| time (UTC) | temp F | wind direction | speed knots | gust knots | rain 1hr in | rain 24hr in | rain mn in | humidity % | barometer mb |
| 20260505002629 | 72 | 181 | 2.6 | 7.8 | 0.00 | 0.00 | 0.00 | 26 | 1005.6 |
| 20260505001629 | 73 | 134 | 2.6 | 7.8 | 0.00 | 0.00 | 0.00 | 26 | 1005.7 |
| 20260505000623 | 73 | 176 | 6.1 | 11.3 | 0.00 | 0.00 | 0.00 | 27 | 1005.8 |
| 20260504235623 | 73 | 161 | 5.2 | 8.7 | 0.00 | 0.00 | 0.00 | 28 | 1005.9 |
| 20260504234626 | 73 | 94 | 7.0 | 12.2 | 0.00 | 0.00 | 0.00 | 27 | 1005.8 |
| 20260504233626 | 73 | 138 | 6.1 | 13.9 | 0.00 | 0.00 | 0.00 | 29 | 1005.8 |
| 20260504232624 | 71 | 178 | 7.0 | 13.9 | 0.00 | 0.00 | 0.00 | 30 | 1005.9 |
| 20260504231620 | 71 | 96 | 9.6 | 13.9 | 0.00 | 0.00 | 0.00 | 29 | 1006.2 |
| 20260504230641 | 72 | 70 | 12.2 | 21.7 | 0.00 | 0.00 | 0.00 | 28 | 1006.1 |
| 20260504225639 | 74 | 136 | 11.3 | 16.5 | 0.00 | 0.00 | 0.00 | 27 | 1006.3 |
| 20260504224617 | 75 | 216 | 4.3 | 10.4 | 0.00 | 0.00 | 0.00 | 23 | 1006.0 |
| 20260504223617 | 74 | 268 | 7.0 | 13.0 | 0.00 | 0.00 | 0.00 | 26 | 1005.9 |
| 20260504222618 | 75 | 238 | 8.7 | 13.9 | 0.00 | 0.00 | 0.00 | 28 | 1006.0 |
| 20260504221622 | 74 | 248 | 7.8 | 16.5 | 0.00 | 0.00 | 0.00 | 28 | 1005.9 |
| 20260504220622 | 75 | 259 | 7.8 | 13.0 | 0.00 | 0.00 | 0.00 | 26 | 1005.9 |
| 20260504215623 | 75 | 316 | 4.3 | 8.7 | 0.00 | 0.00 | 0.00 | 23 | 1005.8 |
| 20260504214620 | 75 | 285 | 7.0 | 13.0 | 0.00 | 0.00 | 0.00 | 24 | 1005.9 |
| 20260504213639 | 76 | 268 | 1.7 | 8.7 | 0.00 | 0.00 | 0.00 | 23 | 1006.1 |
| 20260504212622 | 76 | 249 | 3.5 | 9.6 | 0.00 | 0.00 | 0.00 | 23 | 1006.2 |
| 20260504211621 | 75 | 209 | 3.5 | 10.4 | 0.00 | 0.00 | 0.00 | 23 | 1006.4 |
| 20260504210621 | 76 | 248 | 4.3 | 8.7 | 0.00 | 0.00 | 0.00 | 24 | 1006.4 |
| 20260504205621 | 75 | 213 | 2.6 | 6.1 | 0.00 | 0.00 | 0.00 | 25 | 1006.5 |
| 20260504204640 | 75 | 229 | 3.5 | 7.8 | 0.00 | 0.00 | 0.00 | 23 | 1006.5 |
| 20260504203625 | 75 | 280 | 4.3 | 9.6 | 0.00 | 0.00 | 0.00 | 25 | 1006.8 |
| 20260504202625 | 75 | 57 | 0.9 | 7.0 | 0.00 | 0.00 | 0.00 | 24 | 1006.8 |
| 20260504201626 | 75 | 277 | 2.6 | 9.6 | 0.00 | 0.00 | 0.00 | 26 | 1006.9 |
| 20260504200624 | 75 | 284 | 4.3 | 7.8 | 0.00 | 0.00 | 0.00 | 25 | 1007.0 |
| 20260504195623 | 74 | 19 | 0.0 | 7.0 | 0.00 | 0.00 | 0.00 | 26 | 1007.1 |
| 20260504194627 | 74 | 316 | 4.3 | 9.6 | 0.00 | 0.00 | 0.00 | 26 | 1007.3 |
| 20260504193626 | 74 | 272 | 2.6 | 7.8 | 0.00 | 0.00 | 0.00 | 26 | 1007.4 |
| 20260504192624 | 74 | 284 | 2.6 | 6.1 | 0.00 | 0.00 | 0.00 | 26 | 1007.4 |
| 20260504191624 | 74 | 344 | 4.3 | 7.8 | 0.00 | 0.00 | 0.00 | 25 | 1007.5 |
| 20260504190630 | 74 | 317 | 0.9 | 7.0 | 0.00 | 0.00 | 0.00 | 25 | 1007.7 |
| 20260504185632 | 73 | 13 | 4.3 | 7.8 | 0.00 | 0.00 | 0.00 | 26 | 1007.9 |
| 20260504184631 | 73 | 350 | 6.1 | 10.4 | 0.00 | 0.00 | 0.00 | 26 | 1007.9 |
| 20260504183631 | 72 | 26 | 5.2 | 9.6 | 0.00 | 0.00 | 0.00 | 26 | 1007.9 |
| 20260504182632 | 73 | 313 | 2.6 | 7.0 | 0.00 | 0.00 | 0.00 | 28 | 1008.2 |
| 20260504181635 | 72 | 284 | 4.3 | 7.8 | 0.00 | 0.00 | 0.00 | 28 | 1008.3 |
| 20260504180645 | 72 | 273 | 4.3 | 7.8 | 0.00 | 0.00 | 0.00 | 27 | 1008.4 |
| 20260504175646 | 72 | 206 | 2.6 | 7.8 | 0.00 | 0.00 | 0.00 | 26 | 1008.5 |
| 20260504174623 | 72 | 286 | 3.5 | 7.0 | 0.00 | 0.00 | 0.00 | 29 | 1008.6 |
| 20260504173621 | 71 | 245 | 2.6 | 7.0 | 0.00 | 0.00 | 0.00 | 28 | 1008.7 |
| 20260504172621 | 70 | 263 | 0.9 | 5.2 | 0.00 | 0.00 | 0.00 | 29 | 1008.7 |
| 20260504171625 | 70 | 254 | 4.3 | 7.0 | 0.00 | 0.00 | 0.00 | 29 | 1008.9 |
| 20260504170624 | 70 | 286 | 4.3 | 7.0 | 0.00 | 0.00 | 0.00 | 31 | 1008.9 |
| 20260504150648 | 66 | 301 | 1.7 | 3.5 | 0.00 | 0.00 | 0.00 | 40 | 1009.4 |
| 20260504140630 | 63 | 355 | 1.7 | 2.6 | 0.00 | 0.00 | 0.00 | 44 | 1009.6 |
| 20260504130633 | 61 | 157 | 3.5 | 7.0 | 0.00 | 0.00 | 0.00 | 39 | 1009.5 |
| 20260504110632 | 58 | 86 | 1.7 | 3.5 | 0.00 | 0.00 | 0.00 | 40 | 1009.4 |
| 20260504081628 | 57 | 107 | 0.0 | 1.7 | 0.00 | 0.00 | 0.00 | 44 | 1008.2 |
| 20260504080630 | 57 | 107 | 0.0 | 2.6 | 0.00 | 0.00 | 0.00 | 41 | 1008.3 |